User: anonymous   Login
Location: Fremont
(37.5480°N, 121.9880°W)
Time: 22:03:21
(UTC-07:00)
Language:

Cosmos 1844 Rocket - Orbit

View from above orbital plane
View from above orbital plane
View from above satellite
View from above satellite

Ground track
Ground track

The orbit data is extracted from the following two-line orbital elements,

1 17974U 87041B   17141.94689236 -.00000186 +00000-0 -68169-4 0  9990
2 17974 071.0077 325.1291 0011886 071.0442 035.6145 14.17228256552764
Epoch (UTC): 21 May 2017 22:43:31
Eccentricity: 0.0011886
inclination: 71.0077°
perigee height: 826 km
apogee height: 843 km
right ascension of ascending node: 325.1291°
argument of perigee: 71.0442°
revolutions per day: 14.17228256
mean anomaly at epoch: 35.6145°
orbit number at epoch: 55276

The dashed part of the orbit path shows where the satellite is in the earth's shadow,  

DLR